Clemson, SC

10:23 AM EDT on April 23, 2017 (GMT -0400)
Oconee County Regional

Weather History for KCEU - March, 2012

Change the Weather History Date:

Saturday, March 31, 2012

  Actual Average Record
Temperature  
Mean Temperature 72 °F -  
Max Temperature 81 °F 68 °F 85 °F (1963)
Min Temperature 63 °F 44 °F 23 °F (1950)
Cooling Degree Days 6    
Growing Degree Days 22 (Base 50)    
Moisture  
Dew Point 60 °F    
Average Humidity 75    
Maximum Humidity 90    
Minimum Humidity 47    
Precipitation  
Precipitation 0.22 in - - ()
Sea Level Pressure  
Sea Level Pressure 29.83 in    
Wind  
Wind Speed 2 mph (WSW)    
Max Wind Speed 8 mph    
Max Gust Speed -    
Visibility 8 miles    
Events Rain    
Averages and records for this station are not official NWS values.
T = Trace of Precipitation, MM = Missing Value Source: NWS Daily Summary

Daily Weather History Graph

Daily Weather History Graph

Search for Another Location

Airport or City:

Trip Planner

Search our weather history database for the weather conditions in past years. The results will help you decide how hot, cold, wet, or windy it might be!

Date:

Astronomy

Mar. 31, 2012 Rise Set
Actual Time 7:19 AM EDT 7:52 PM EDT
Civil Twilight 6:53 AM EDT 8:17 PM EDT
Nautical Twilight 6:24 AM EDT 8:47 PM EDT
Astronomical Twilight 5:53 AM EDT 9:18 PM EDT
Moon 1:34 PM EDT (3/31) 2:59 AM EDT (3/31)
Length of Visible Light 13h 23m
Length of Day
12h 33m
First Quarter, 59% of the Moon is Illuminated
Mar 31
First Quarter
Apr 6
Full
Apr 13
Last Quarter
Apr 21
New
Apr 29
First Quarter

Hourly Weather History & Observations

Time (EDT) Temp. Heat Index Dew Point Humidity Pressure Visibility Wind Dir Wind Speed Gust Speed Precip Events Conditions
12:54 AM 64.0 °F - 60.1 °F 87% 29.89 in 10.0 mi Calm Calm - 0.01 in Rain Light Rain
1:54 AM 64.0 °F - 61.0 °F 90% 29.87 in 7.0 mi Calm Calm - 0.00 in   Overcast
2:08 AM 64.4 °F - 60.8 °F 88% 29.89 in 6.0 mi Calm Calm - 0.00 in Rain Light Rain
2:29 AM 64.4 °F - 60.8 °F 88% 29.89 in 2.0 mi Calm Calm - 0.06 in Rain Heavy Rain
2:36 AM 64.4 °F - 60.8 °F 88% 29.88 in 1.8 mi Calm Calm - 0.09 in Rain Rain
2:39 AM 64.4 °F - 60.8 °F 88% 29.88 in 2.0 mi Calm Calm - 0.10 in Rain Light Rain
2:54 AM 64.0 °F - 61.0 °F 90% 29.86 in 4.0 mi Calm Calm - 0.11 in Rain Light Rain
3:54 AM 64.0 °F - 61.0 °F 90% 29.83 in 7.0 mi Calm Calm - 0.02 in   Overcast
4:54 AM 64.0 °F - 61.0 °F 90% 29.81 in 4.0 mi South 3.5 mph - 0.03 in Rain Rain
5:26 AM 64.4 °F - 60.8 °F 88% 29.83 in 6.0 mi Calm Calm - 0.03 in Rain Light Rain
5:54 AM 64.0 °F - 61.0 °F 90% 29.81 in 9.0 mi WSW 5.8 mph - 0.04 in   Overcast
6:42 AM 64.4 °F - 60.8 °F 88% 29.84 in 10.0 mi SW 4.6 mph - N/A   Mostly Cloudy
6:54 AM 64.0 °F - 61.0 °F 90% 29.82 in 10.0 mi SW 5.8 mph - N/A   Mostly Cloudy
7:09 AM 64.4 °F - 60.8 °F 88% 29.84 in 9.0 mi SW 4.6 mph - N/A   Scattered Clouds
7:54 AM 63.0 °F - 60.1 °F 90% 29.83 in 10.0 mi WSW 5.8 mph - 0.01 in   Clear
8:54 AM 64.9 °F - 61.0 °F 87% 29.84 in 10.0 mi West 5.8 mph - N/A   Clear
9:54 AM 68.0 °F - 62.1 °F 81% 29.85 in 10.0 mi West 6.9 mph - N/A   Clear
10:54 AM 72.0 °F - 60.1 °F 66% 29.86 in 10.0 mi West 8.1 mph - N/A   Clear
11:54 AM 73.0 °F - 59.0 °F 61% 29.86 in 10.0 mi West 8.1 mph - N/A   Clear
12:54 PM 73.9 °F - 60.1 °F 62% 29.84 in 10.0 mi SW 4.6 mph - N/A   Clear
1:54 PM 75.9 °F - 57.0 °F 52% 29.82 in 10.0 mi West 8.1 mph - N/A   Clear
2:54 PM 77.0 °F - 57.0 °F 50% 29.80 in 10.0 mi Variable 5.8 mph - N/A   Clear
3:54 PM 79.0 °F - 57.9 °F 48% 29.76 in 10.0 mi Variable 4.6 mph - N/A   Clear
4:54 PM 80.1 °F 80.6 °F 57.9 °F 47% 29.75 in 10.0 mi Variable 5.8 mph - N/A   Clear
5:54 PM 78.1 °F - 57.9 °F 50% 29.75 in 10.0 mi South 8.1 mph - N/A   Clear
6:54 PM 75.9 °F - 59.0 °F 56% 29.77 in 10.0 mi SW 3.5 mph - N/A   Clear
7:54 PM 72.0 °F - 60.1 °F 66% 29.78 in 10.0 mi East 5.8 mph - 0.00 in   Clear
8:54 PM 68.0 °F - 55.0 °F 63% 29.80 in 10.0 mi Calm Calm - N/A   Clear
10:54 PM 64.0 °F - 53.1 °F 67% 29.83 in 10.0 mi Calm Calm - N/A   Clear